カタログに戻る

FENGYUN 1C DEB

運用中PO
NORAD 36263·DEBRIS·🇨🇳 China

打ち上げ May 10, 1999 から Taiyuan Satellite Launch Center

Loading…

次のパス (今後24時間)

TLE

最新Source: Space-Track

元期: Sep 11, 2026, 04:10 UTC

1 36263U 99025DWQ 26254.17405646  .00003161  00000-0  84714-3 0  9995
2 36263  98.9797 157.1396 0033946 166.7010 193.5084 14.48629395919267

AllMySatでFENGYUN 1C DEBをリアルタイム追跡

Download on the App Store